�������l�o���
Date,Time,MP-1(��Sv/h),MP-2(��Sv/h),MP-3(��Sv/h),MP-4(��Sv/h),MP-5(��Sv/h),MP-6(��Sv/h),MP-7(��Sv/h),MP-8(��Sv/h),����,����(m/s),���J
2015/03/17,00:00,1.913,3.462,3.782,3.393,3.555,1.072,1.790,1.733,��,4.6,��
2015/03/17,00:10,1.912,3.462,3.787,3.395,3.598,1.070,1.793,1.733,��,4.6,��
2015/03/17,00:20,1.912,3.462,3.783,3.398,3.607,1.073,1.790,1.735,��,3.8,��
2015/03/17,00:30,1.913,3.462,3.782,3.395,3.603,1.073,1.790,1.733,��,3.3,��
2015/03/17,00:40,1.910,3.462,3.785,3.400,3.608,1.073,1.793,1.733,��쐼,2.9,��
2015/03/17,00:50,1.913,3.465,3.785,3.400,3.603,1.073,1.792,1.735,��쐼,2.2,��
2015/03/17,01:00,1.913,3.465,3.783,3.397,3.605,1.073,1.790,1.733,��쐼,1.8,��
2015/03/17,01:10,1.910,3.463,3.785,3.397,3.602,1.073,1.793,1.735,��쐼,1.0,��
2015/03/17,01:20,1.912,3.467,3.785,3.397,3.603,1.073,1.790,1.735,�쐼,0.6,��
2015/03/17,01:30,1.910,3.462,3.783,3.398,3.607,1.075,1.792,1.735,-,CALM,��
2015/03/17,01:40,1.912,3.462,3.787,3.402,3.608,1.070,1.792,1.737,�k�k��,0.9,��
2015/03/17,01:50,1.912,3.460,3.785,3.398,3.605,1.072,1.795,1.733,�k,1.4,��
2015/03/17,02:00,1.912,3.467,3.785,3.400,3.608,1.073,1.793,1.737,�k,3.1,��
2015/03/17,02:10,1.912,3.463,3.787,3.402,3.608,1.073,1.790,1.732,�k,2.9,��
2015/03/17,02:20,1.915,3.460,3.787,3.400,3.610,1.070,1.792,1.735,�k,3.5,��
2015/03/17,02:30,1.912,3.465,3.785,3.398,3.610,1.070,1.790,1.732,�k�k��,2.8,��
2015/03/17,02:40,1.912,3.465,3.783,3.398,3.610,1.072,1.790,1.735,�k,2.6,��
2015/03/17,02:50,1.908,3.462,3.787,3.400,3.610,1.072,1.792,1.732,�k,2.2,��
2015/03/17,03:00,1.910,3.463,3.787,3.402,3.612,1.073,1.790,1.733,�k,1.4,��
2015/03/17,03:10,1.910,3.463,3.787,3.400,3.608,1.073,1.790,1.735,�k�k��,2.4,��
2015/03/17,03:20,1.912,3.467,3.788,3.400,3.613,1.073,1.793,1.735,�k�k��,2.9,��
2015/03/17,03:30,1.910,3.465,3.783,3.395,3.613,1.075,1.795,1.735,�k�k��,3.7,��
2015/03/17,03:40,1.912,3.463,3.783,3.398,3.610,1.073,1.792,1.733,�k�k��,3.3,��
2015/03/17,03:50,1.912,3.465,3.785,3.397,3.607,1.075,1.792,1.732,�k��,3.8,��
2015/03/17,04:00,1.910,3.465,3.785,3.402,3.610,1.075,1.792,1.735,�k��,3.3,��
2015/03/17,04:10,1.910,3.463,3.787,3.398,3.613,1.073,1.788,1.735,���k��,3.2,��
2015/03/17,04:20,1.912,3.468,3.780,3.397,3.608,1.072,1.790,1.733,�k��,2.6,��
2015/03/17,04:30,1.915,3.467,3.785,3.393,3.607,1.072,1.792,1.733,�k��,1.5,��
2015/03/17,04:40,1.912,3.465,3.788,3.395,3.607,1.070,1.790,1.733,�k�k��,1.0,��
2015/03/17,04:50,1.910,3.463,3.787,3.398,3.605,1.072,1.793,1.732,�k,1.4,��
2015/03/17,05:00,1.908,3.463,3.782,3.398,3.603,1.070,1.792,1.735,�k�k��,1.0,��
2015/03/17,05:10,1.907,3.465,3.782,3.397,3.605,1.072,1.790,1.732,�k��,1.0,��
2015/03/17,05:20,1.910,3.457,3.780,3.393,3.605,1.072,1.793,1.735,�k,1.5,��
2015/03/17,05:30,1.910,3.458,3.777,3.393,3.605,1.072,1.790,1.733,�k�k��,1.8,��
2015/03/17,05:40,1.908,3.457,3.782,3.398,3.602,1.068,1.790,1.732,�k�k��,1.7,��
2015/03/17,05:50,1.912,3.457,3.780,3.397,3.603,1.068,1.787,1.735,�k,2.0,��
2015/03/17,06:00,1.908,3.458,3.780,3.393,3.600,1.063,1.788,1.733,�k�k��,1.5,��
2015/03/17,06:10,1.908,3.460,3.775,3.397,3.600,1.065,1.788,1.730,�k,1.6,��
2015/03/17,06:20,1.912,3.460,3.782,3.395,3.605,1.062,1.790,1.732,�k,2.1,��
2015/03/17,06:30,1.912,3.458,3.787,3.397,3.598,1.063,1.788,1.733,�k,2.0,��
2015/03/17,06:40,1.910,3.462,3.783,3.395,3.595,1.057,1.787,1.733,�k�k��,1.1,��
2015/03/17,06:50,1.908,3.460,3.783,3.397,3.597,1.057,1.787,1.733,�k,2.6,��
2015/03/17,07:00,1.910,3.457,3.785,3.393,3.593,1.053,1.790,1.732,�k,2.5,��
2015/03/17,07:10,1.908,3.460,3.785,3.395,3.590,1.048,1.790,1.733,�k�k��,2.6,��
2015/03/17,07:20,1.910,3.458,3.787,3.397,3.597,1.047,1.788,1.732,�k�k��,2.1,��
2015/03/17,07:30,1.908,3.458,3.788,3.395,3.598,1.047,1.790,1.733,�k�k��,2.1,��
2015/03/17,07:40,1.910,3.458,3.785,3.397,3.600,1.045,1.790,1.735,�k�k��,1.7,��
2015/03/17,07:50,1.913,3.460,3.788,3.397,3.603,1.045,1.792,1.735,�k�k��,1.6,��
2015/03/17,08:00,1.912,3.462,3.790,3.400,3.608,1.043,1.790,1.737,�k�k��,1.5,��
2015/03/17,08:10,1.913,3.463,3.785,3.397,3.605,1.042,1.790,1.733,�k�k��,2.1,��
2015/03/17,08:20,1.913,3.465,3.787,3.398,3.605,1.043,1.790,1.733,�k�k��,1.7,��
2015/03/17,08:30,1.907,3.463,3.785,3.398,3.608,1.042,1.792,1.732,�k�k��,1.8,��
2015/03/17,08:40,1.912,3.465,3.788,3.397,3.607,1.045,1.792,1.733,�k��,1.5,��
2015/03/17,08:50,1.910,3.468,3.787,3.400,3.608,1.043,1.790,1.732,�k��,1.1,��
2015/03/17,09:00,1.912,3.465,3.783,3.397,3.612,1.043,1.788,1.733,���k��,1.7,��
2015/03/17,09:10,1.905,3.465,3.787,3.397,3.613,1.042,1.788,1.733,�k��,1.4,��
2015/03/17,09:20,1.905,3.465,3.787,3.397,3.613,1.040,1.788,1.733,���k��,2.0,��
2015/03/17,09:30,1.910,3.467,3.788,-,3.607,1.042,1.790,1.733,���k��,1.9,��
2015/03/17,09:40,1.910,3.467,3.787,-,3.610,1.040,1.788,1.733,���k��,1.9,��
2015/03/17,09:50,1.910,3.468,3.793,-,3.613,1.043,1.790,1.732,���쓌,2.1,��
2015/03/17,10:00,1.908,3.467,3.793,-,3.613,1.040,1.792,1.733,���쓌,1.3,��
2015/03/17,10:10,1.908,3.467,3.793,-,3.617,1.042,1.792,1.733,�쓌,2.2,��
2015/03/17,10:20,1.907,3.465,3.795,-,3.615,1.040,1.793,1.733,���쓌,2.1,��
2015/03/17,10:30,1.910,3.470,3.792,-,3.622,1.038,1.790,1.732,�쓌,1.8,��
2015/03/17,10:40,1.913,3.467,3.793,-,3.623,1.040,1.792,1.733,�쓌,2.2,��
2015/03/17,10:50,1.912,3.465,3.792,-,3.622,1.045,1.793,1.730,�쓌,2.1,��
2015/03/17,11:00,1.915,3.467,3.793,3.393,3.622,1.045,1.792,1.735,��쓌,2.7,��
2015/03/17,11:10,1.915,3.467,3.795,3.400,3.625,1.048,1.792,1.735,��쓌,2.9,��
2015/03/17,11:20,1.912,3.468,3.800,3.402,3.620,1.048,1.793,1.735,��쓌,2.6,��
2015/03/17,11:30,1.912,3.467,3.802,3.403,3.623,1.053,1.795,1.735,��,5.3,��
2015/03/17,11:40,1.915,3.468,3.802,3.400,3.628,1.052,1.795,1.735,��,5.0,��
2015/03/17,11:50,1.913,3.472,3.803,3.405,3.625,1.053,1.798,1.735,��,5.2,��
2015/03/17,12:00,1.912,3.470,3.805,3.403,3.630,1.053,1.793,1.735,��쓌,6.1,��
2015/03/17,12:10,1.917,3.475,3.805,3.398,3.625,1.053,1.795,1.738,��쓌,5.4,��
2015/03/17,12:20,1.912,3.473,3.805,3.405,3.630,1.052,1.795,1.740,��쓌,5.7,��
2015/03/17,12:30,1.913,3.472,3.802,3.407,3.628,1.052,1.792,1.738,��쓌,4.3,��
2015/03/17,12:40,1.918,3.470,3.802,3.408,3.633,1.055,1.797,1.735,��쓌,4.9,��
2015/03/17,12:50,1.918,3.468,3.803,3.405,3.628,1.057,1.797,1.738,��쓌,4.2,��
2015/03/17,13:00,1.915,3.472,3.805,3.405,3.628,1.057,1.795,1.738,��쓌,3.9,��
2015/03/17,13:10,1.920,3.472,3.802,3.408,3.632,1.057,1.793,1.737,�쓌,2.6,��
2015/03/17,13:20,1.918,3.473,3.805,3.405,3.633,1.057,1.793,1.738,�쓌,3.2,��
2015/03/17,13:30,1.918,3.472,3.803,3.403,3.630,1.057,1.793,1.737,�쓌,3.4,��
2015/03/17,13:40,1.917,3.468,3.805,3.400,3.632,1.057,1.797,1.737,�쓌,3.4,��
2015/03/17,13:50,1.920,3.467,3.805,3.400,3.630,1.053,1.795,1.738,�쓌,3.1,��
2015/03/17,14:00,1.922,3.468,3.805,3.400,3.632,1.058,1.795,1.737,���쓌,2.3,��
2015/03/17,14:10,1.918,3.468,3.803,3.400,3.632,1.060,1.797,1.737,�쓌,2.2,��
2015/03/17,14:20,1.918,3.468,3.808,-,3.632,1.060,1.797,1.738,���쓌,2.1,��
2015/03/17,14:30,1.918,3.468,3.807,-,3.633,1.058,1.797,1.735,�쓌,2.5,��
2015/03/17,14:40,1.917,3.467,3.805,-,3.635,1.058,1.793,1.738,�쓌,3.4,��
2015/03/17,14:50,1.918,3.468,3.810,-,3.632,1.062,1.795,1.737,�쓌,3.8,��
2015/03/17,15:00,1.920,3.468,3.810,-,3.635,1.062,1.795,1.733,��쓌,4.4,��
2015/03/17,15:10,1.918,3.467,3.810,-,3.635,1.067,1.795,1.737,�쓌,4.0,��
2015/03/17,15:20,1.915,3.468,3.810,-,3.635,1.068,1.797,1.735,��쓌,4.8,��
2015/03/17,15:30,1.915,3.470,3.810,-,3.633,1.068,1.798,1.740,�쓌,4.3,��
2015/03/17,15:40,1.918,3.468,3.810,-,3.635,1.068,1.795,1.737,��쓌,3.8,��
2015/03/17,15:50,1.918,3.473,3.812,-,3.632,1.070,1.797,1.738,��쓌,3.6,��
2015/03/17,16:00,1.917,3.472,3.807,-,3.637,1.072,1.800,1.738,��쓌,4.9,��
2015/03/17,16:10,1.918,3.468,3.810,3.415,3.633,1.072,1.797,1.738,��쓌,4.4,��
2015/03/17,16:20,1.920,3.472,3.813,3.420,3.633,1.072,1.797,1.738,��쓌,4.5,��
2015/03/17,16:30,1.917,3.468,3.815,3.415,3.638,1.072,1.797,1.737,��쓌,5.4,��
2015/03/17,16:40,1.913,3.470,3.812,3.417,3.638,1.073,1.795,1.735,��쓌,5.1,��
2015/03/17,16:50,1.917,3.465,3.812,3.418,3.635,1.075,1.797,1.737,��,3.4,��
2015/03/17,17:00,1.920,3.470,3.807,3.413,3.627,1.073,1.797,1.738,��,2.4,��
2015/03/17,17:10,1.920,3.468,3.812,3.415,3.617,1.075,1.795,1.737,��쐼,1.4,��
2015/03/17,17:20,1.922,3.468,3.810,3.417,3.625,1.077,1.798,1.738,���쐼,1.5,��
2015/03/17,17:30,1.918,3.468,3.807,3.417,3.630,1.075,1.797,1.738,���k��,0.8,��
2015/03/17,17:40,1.918,3.467,3.810,3.413,3.630,1.072,1.795,1.738,�k��,1.5,��
2015/03/17,17:50,1.917,3.463,3.812,3.413,3.628,1.073,1.797,1.733,�k�k��,1.7,��
2015/03/17,18:00,1.918,3.462,3.808,3.415,3.628,1.075,1.800,1.737,�k��,2.7,��
2015/03/17,18:10,1.920,3.462,3.807,3.410,3.630,1.077,1.793,1.737,�k�k��,1.7,��
2015/03/17,18:20,1.918,3.462,3.805,3.410,3.628,1.077,1.795,1.735,�k��,2.2,��
2015/03/17,18:30,1.913,3.462,3.802,3.410,3.625,1.077,1.797,1.735,�k��,2.2,��
2015/03/17,18:40,1.917,3.465,3.810,3.410,3.628,1.077,1.800,1.737,���k��,1.5,��
2015/03/17,18:50,1.918,3.460,3.807,3.410,3.628,1.077,1.793,1.737,��,1.4,��
2015/03/17,19:00,1.920,3.460,3.802,3.410,3.627,1.073,1.795,1.735,��,1.2,��
2015/03/17,19:10,1.920,3.460,3.803,3.408,3.627,1.077,1.795,1.737,���쐼,1.2,��
2015/03/17,19:20,1.920,3.462,3.802,3.410,3.625,1.075,1.795,1.737,���쐼,1.3,��
2015/03/17,19:30,1.918,3.460,3.807,3.405,3.622,1.075,1.793,1.735,�쐼,1.7,��
2015/03/17,19:40,1.920,3.455,3.800,3.407,3.622,1.075,1.797,1.735,�쐼,1.4,��
2015/03/17,19:50,1.922,3.460,3.800,3.403,3.625,1.075,1.793,1.738,��쐼,1.0,��
2015/03/17,20:00,1.920,3.458,3.803,3.403,3.625,1.075,1.793,1.735,��,1.1,��
2015/03/17,20:10,1.920,3.458,3.800,3.403,3.625,1.078,1.792,1.733,��쓌,1.2,��
2015/03/17,20:20,1.917,3.458,3.798,3.405,3.625,1.078,1.793,1.735,���쓌,0.6,��
2015/03/17,20:30,1.920,3.457,3.798,3.405,3.622,1.075,1.793,1.735,��,0.6,��
2015/03/17,20:40,1.917,3.463,3.797,3.402,3.625,1.073,1.795,1.733,���k��,0.8,��
2015/03/17,20:50,1.922,3.462,3.793,3.405,3.622,1.075,1.792,1.735,��,0.6,��
2015/03/17,21:00,1.920,3.457,3.798,3.402,3.622,1.075,1.792,1.735,���쓌,0.6,��
2015/03/17,21:10,1.920,3.458,3.793,3.400,3.623,1.077,1.792,1.733,���k��,1.4,��
2015/03/17,21:20,1.913,3.460,3.798,3.405,3.620,1.075,1.792,1.733,�k�k��,1.5,��
2015/03/17,21:30,1.913,3.457,3.795,3.408,3.622,1.077,1.793,1.735,�k�k��,2.0,��
2015/03/17,21:40,1.912,3.458,3.802,3.400,3.618,1.077,1.793,1.735,�k��,1.7,��
2015/03/17,21:50,1.915,3.458,3.800,3.405,3.618,1.078,1.793,1.733,�k�k��,1.5,��
2015/03/17,22:00,1.917,3.458,3.798,3.402,3.620,1.077,1.795,1.733,�k,2.3,��
2015/03/17,22:10,1.918,3.458,3.797,3.402,3.620,1.075,1.795,1.733,�k��,4.2,��
2015/03/17,22:20,1.918,3.455,3.795,3.402,3.620,1.080,1.795,1.735,�k��,4.3,��
2015/03/17,22:30,1.915,3.457,3.797,3.400,3.617,1.078,1.795,1.737,�k��,4.9,��
2015/03/17,22:40,1.917,3.455,3.798,3.402,3.617,1.078,1.792,1.735,�k��,2.8,��
2015/03/17,22:50,1.917,3.458,3.797,3.400,3.618,1.075,1.793,1.733,�k�k��,2.0,��
2015/03/17,23:00,1.918,3.455,3.790,3.403,3.620,1.075,1.788,1.733,�k,1.3,��
2015/03/17,23:10,1.917,3.453,3.793,3.403,3.617,1.080,1.795,1.733,�k�k��,1.2,��
2015/03/17,23:20,1.917,3.455,3.795,3.402,3.620,1.075,1.795,1.733,�k,1.1,��
2015/03/17,23:30,1.917,3.457,3.793,3.403,3.618,1.078,1.792,1.735,�k,0.9,��
2015/03/17,23:40,1.915,3.457,3.790,3.402,3.615,1.080,1.793,1.735,�k�k��,0.9,��
2015/03/17,23:50,1.920,3.458,3.792,3.402,3.617,1.077,1.793,1.733,-,CALM,��
